Total_Precipitation_Accumulation
0.00 0.00 0.01 0.01 0.01 0.02 0.02 0.03 0.04 0.06 0.08 0.16 0.26 0.41 0.57 0.65 0.73 0.81 0.92 0.94 1.17 1.24 1.44 1.81 2.24 2.53 2.81 2.72 2.71 2.60 2.66 2.86 2.89 2.99 3.11 3.34 3.29 3.25 3.49 3.74 3.85 4.02 4.09 3.92
0.00 0.00 0.01 0.01 0.01 0.02 0.02 0.03 0.06 0.12 0.15 0.23 0.35 0.47 0.64 0.75 0.73 0.89 1.05 1.07 1.41 1.59 1.64 1.88 2.29 2.56 2.78 2.86 2.82 2.83 2.99 3.01 3.08 3.38 3.82 4.21 4.49 4.61 4.66 4.83 4.82 4.70 4.54 4.42
0.00 0.01 0.00 0.00 0.01 0.02 0.03 0.04 0.07 0.13 0.21 0.29 0.42 0.72 0.82 0.77 0.79 0.97 1.18 1.21 1.42 1.70 1.87 1.79 1.86 2.03 2.36 2.64 2.82 2.88 3.17 3.48 3.80 4.23 4.71 5.10 5.44 5.61 5.45 5.24 5.12 4.91 4.68 4.50
0.01 0.01 0.01 0.00 0.01 0.02 0.04 0.04 0.06 0.09 0.18 0.34 0.40 0.73 0.87 0.87 0.99 1.09 1.21 1.14 1.29 1.38 1.59 1.75 1.75 1.83 2.07 2.34 2.66 2.94 3.21 3.74 4.46 5.07 5.58 6.01 6.16 6.11 5.94 5.65 5.26 4.83 4.47 4.15
0.01 0.01 0.01 0.01 0.01 0.01 0.02 0.03 0.05 0.09 0.12 0.25 0.31 0.59 0.88 0.95 1.03 1.15 1.32 1.21 1.19 1.25 1.30 1.43 1.54 1.66 1.89 2.14 2.45 2.80 3.16 3.79 4.44 5.05 5.60 5.99 6.15 6.03 5.73 5.27 4.77 4.27 3.80 3.42
0.01 0.01 0.01 0.00 0.00 0.00 0.01 0.03 0.06 0.10 0.15 0.30 0.29 0.47 0.95 1.16 1.24 1.40 1.40 1.45 1.52 1.40 1.31 1.31 1.32 1.39 1.53 1.78 2.09 2.50 2.94 3.43 3.91 4.28 4.78 5.08 5.24 5.17 4.83 4.34 3.73 3.28 2.95 2.65
0.03 0.02 0.01 0.00 0.00 0.01 0.01 0.04 0.14 0.24 0.27 0.33 0.28 0.50 1.04 1.31 1.33 1.43 1.41 1.52 1.61 1.50 1.39 1.31 1.27 1.26 1.34 1.55 1.87 2.13 2.38 2.77 3.03 3.32 3.69 3.90 3.90 3.74 3.51 3.26 2.96 2.54 2.16 1.87
0.08 0.06 0.02 0.01 0.01 0.01 0.01 0.03 0.19 0.39 0.37 0.39 0.49 0.86 1.30 1.33 1.23 1.25 1.30 1.30 1.33 1.22 1.22 1.26 1.28 1.26 1.34 1.38 1.53 1.71 1.83 2.01 2.14 2.24 2.42 2.44 2.40 2.31 2.28 2.12 1.90 1.65 1.38 1.12
0.15 0.10 0.04 0.01 0.01 0.01 0.01 0.04 0.10 0.18 0.25 0.45 0.82 1.30 1.63 1.48 1.40 1.31 1.16 1.02 1.11 1.10 1.08 1.14 1.19 1.23 1.27 1.27 1.26 1.27 1.28 1.31 1.30 1.31 1.41 1.46 1.44 1.40 1.35 1.24 1.11 0.99 0.88 0.77
0.13 0.11 0.06 0.03 0.02 0.03 0.03 0.06 0.08 0.16 0.43 0.62 0.89 1.34 1.84 1.90 1.85 1.77 1.47 1.16 1.14 1.15 1.18 1.05 0.97 1.02 1.10 1.07 1.04 0.99 0.99 0.97 0.89 0.81 0.83 0.87 0.90 0.86 0.81 0.76 0.72 0.67 0.62 0.57
0.12 0.11 0.09 0.06 0.07 0.08 0.06 0.07 0.10 0.18 0.32 0.62 1.08 1.62 1.72 1.97 2.02 1.87 1.59 1.30 1.26 1.22 1.18 1.12 1.12 1.05 1.06 1.04 1.00 0.94 0.91 0.87 0.80 0.74 0.72 0.67 0.61 0.58 0.53 0.49 0.46 0.43 0.40 0.38
0.13 0.16 0.15 0.11 0.10 0.09 0.10 0.10 0.12 0.26 0.31 0.44 0.95 1.72 1.79 2.01 2.10 1.94 1.89 1.67 1.46 1.37 1.27 1.22 1.21 1.10 1.02 0.95 0.93 0.91 0.83 0.75 0.70 0.67 0.62 0.57 0.50 0.46 0.43 0.40 0.35 0.31 0.30 0.28
0.13 0.26 0.37 0.47 0.36 0.18 0.12 0.11 0.15 0.17 0.27 0.51 0.92 1.71 1.91 2.00 1.93 1.86 1.74 1.69 1.74 1.72 1.58 1.37 1.20 1.02 0.87 0.77 0.74 0.75 0.74 0.68 0.64 0.63 0.62 0.58 0.50 0.44 0.41 0.39 0.34 0.30 0.29 0.28
0.13 0.27 0.49 0.88 0.69 0.31 0.18 0.16 0.19 0.22 0.42 0.66 0.88 1.38 1.68 1.88 1.97 2.03 1.93 1.87 1.84 1.60 1.24 1.02 0.94 0.86 0.78 0.72 0.68 0.63 0.62 0.60 0.58 0.61 0.63 0.62 0.59 0.52 0.46 0.41 0.38 0.32 0.28 0.25
0.16 0.30 0.32 0.38 0.35 0.25 0.23 0.21 0.25 0.31 0.35 0.59 0.86 1.28 1.67 1.84 1.95 1.97 2.02 1.92 1.65 1.38 1.17 1.00 0.93 0.88 0.80 0.70 0.61 0.54 0.52 0.50 0.51 0.55 0.55 0.55 0.53 0.51 0.45 0.40 0.37 0.33 0.28 0.26
0.19 0.36 0.33 0.35 0.32 0.36 0.39 0.35 0.37 0.37 0.46 0.64 0.94 1.37 1.60 1.85 1.95 1.88 1.89 1.80 1.71 1.56 1.38 1.22 1.10 1.00 0.89 0.75 0.64 0.60 0.59 0.58 0.56 0.56 0.55 0.49 0.45 0.42 0.37 0.34 0.29 0.26 0.26 0.26
0.25 0.36 0.47 0.46 0.32 0.48 0.77 0.58 0.49 0.53 0.61 0.80 1.12 1.36 1.34 1.43 1.61 1.71 1.74 1.70 1.70 1.63 1.55 1.43 1.31 1.22 1.08 0.94 0.83 0.78 0.75 0.68 0.63 0.64 0.58 0.53 0.48 0.44 0.35 0.30 0.30 0.27 0.28 0.27
0.26 0.41 0.48 0.53 0.61 1.04 1.02 0.67 0.61 0.66 0.75 0.72 0.86 0.95 1.05 1.12 1.23 1.35 1.42 1.58 1.72 1.71 1.61 1.51 1.37 1.27 1.20 1.09 0.95 0.83 0.72 0.65 0.64 0.63 0.58 0.52 0.48 0.45 0.38 0.35 0.36 0.31 0.29 0.30
0.19 0.39 0.58 0.70 0.98 1.20 1.05 0.70 0.70 0.95 1.10 0.73 0.68 0.72 0.75 0.80 0.95 1.27 1.39 1.54 1.68 1.66 1.59 1.51 1.37 1.28 1.22 1.10 0.93 0.79 0.72 0.64 0.62 0.56 0.50 0.47 0.44 0.45 0.42 0.39 0.38 0.34 0.32 0.32
0.18 0.32 0.63 0.84 1.19 1.47 1.36 0.67 0.48 0.83 1.41 0.89 0.70 0.73 0.79 0.93 1.13 1.18 1.10 1.15 1.36 1.52 1.59 1.53 1.35 1.17 1.07 0.91 0.75 0.68 0.65 0.61 0.55 0.45 0.39 0.38 0.41 0.41 0.36 0.35 0.38 0.36 0.35 0.35
0.44 0.53 0.72 0.95 1.29 1.40 0.79 0.45 0.56 1.17 1.37 1.05 0.87 0.84 0.94 1.12 1.16 0.95 0.86 0.97 1.11 1.29 1.37 1.30 1.18 1.05 0.87 0.70 0.63 0.62 0.55 0.49 0.40 0.34 0.32 0.35 0.39 0.40 0.35 0.34 0.37 0.37 0.36 0.38
0.60 0.81 0.93 1.09 1.39 1.37 0.55 0.43 0.75 0.91 0.76 0.74 0.70 0.66 0.71 0.71 0.68 0.68 0.76 0.89 1.02 1.13 1.11 1.05 1.00 0.90 0.75 0.64 0.63 0.64 0.58 0.46 0.38 0.37 0.37 0.37 0.37 0.29 0.26 0.35 0.37 0.34 0.38 0.40
0.50 0.69 0.88 1.07 1.21 0.94 0.49 0.41 0.43 0.50 0.56 0.54 0.55 0.51 0.55 0.58 0.60 0.61 0.66 0.77 0.87 0.92 0.88 0.79 0.70 0.69 0.65 0.62 0.63 0.64 0.57 0.45 0.43 0.49 0.47 0.42 0.39 0.36 0.32 0.34 0.34 0.32 0.34 0.32
0.52 0.40 0.55 0.76 0.74 0.60 0.47 0.41 0.35 0.33 0.38 0.37 0.39 0.42 0.50 0.58 0.60 0.58 0.57 0.59 0.64 0.69 0.69 0.67 0.61 0.61 0.58 0.54 0.52 0.54 0.48 0.44 0.50 0.55 0.50 0.43 0.42 0.40 0.34 0.30 0.24 0.25 0.24 0.22
0.56 0.63 0.83 0.97 0.76 0.68 0.60 0.46 0.36 0.32 0.29 0.28 0.33 0.36 0.41 0.43 0.45 0.43 0.44 0.46 0.46 0.47 0.53 0.55 0.53 0.50 0.45 0.42 0.40 0.37 0.36 0.39 0.51 0.53 0.47 0.41 0.33 0.31 0.33 0.27 0.17 0.15 0.14 0.10
0.43 0.73 1.18 1.03 0.80 0.81 0.68 0.50 0.41 0.40 0.42 0.41 0.34 0.30 0.30 0.32 0.33 0.33 0.37 0.40 0.39 0.39 0.43 0.44 0.43 0.40 0.36 0.33 0.35 0.32 0.29 0.29 0.38 0.42 0.38 0.31 0.25 0.24 0.22 0.22 0.19 0.11 0.07 0.07